VIV4208 MMMY-MMTM

Flight info

Callsign VIV4208
Flight time 1h 11m
Altitude 29000
Route URTOB1A MTY UJ15 TAM
Aircraft A20N/M-SDE2E3FGHIRWXY/LB1

Departure

Time 2026-04-22 05:28
Airport Monterrey International Airport (MMMY)

Arrival

Time 2026-04-22 06:39
Airport General Francisco Javier Mina International Airport (MMTM)
Time Latitude Longitude Altitude Speed Heading
2026-04-22 05:08 25.77908 -100.11389 1271 ft 0 kts 211°
2026-04-22 05:16 25.77920 -100.11381 1284 ft 3 kts 213°
2026-04-22 05:16 25.77937 -100.11369 1280 ft 3 kts 216°
2026-04-22 05:17 25.77953 -100.11355 1282 ft 3 kts 223°
2026-04-22 05:17 25.77967 -100.11339 1280 ft 3 kts 238°
2026-04-22 05:17 25.77974 -100.11320 1280 ft 3 kts 281°
2026-04-22 05:17 25.77971 -100.11310 1281 ft 1 kts 302°
2026-04-22 05:18 25.77970 -100.11309 1281 ft 0 kts 302°
2026-04-22 05:19 25.77971 -100.11309 1281 ft 1 kts 302°
2026-04-22 05:19 25.77980 -100.11326 1284 ft 7 kts 302°
2026-04-22 05:20 25.78188 -100.11706 1280 ft 17 kts 301°
2026-04-22 05:21 25.78240 -100.11797 1281 ft 11 kts 311°
2026-04-22 05:21 25.78286 -100.11789 1281 ft 7 kts 26°
2026-04-22 05:21 25.78328 -100.11766 1281 ft 0 kts 26°
2026-04-22 05:26 25.78329 -100.11766 1281 ft 1 kts 26°
2026-04-22 05:26 25.78376 -100.11736 1281 ft 12 kts 32°
2026-04-22 05:27 25.78398 -100.11685 1281 ft 7 kts 113°
2026-04-22 05:27 25.78392 -100.11674 1282 ft 0 kts 120°
2026-04-22 05:27 25.78389 -100.11668 1282 ft 12 kts 120°
2026-04-22 05:27 25.78219 -100.11361 1282 ft 79 kts 121°
2026-04-22 05:28 25.77834 -100.10658 1279 ft 132 kts 121°
2026-04-22 05:28 25.77287 -100.09665 1390 ft 161 kts 121°
2026-04-22 05:28 25.76695 -100.08605 1930 ft 163 kts 121°
2026-04-22 05:28 25.76086 -100.07526 2484 ft 166 kts 121°
2026-04-22 05:29 25.75459 -100.06430 2974 ft 173 kts 122°
2026-04-22 05:29 25.74799 -100.05232 3268 ft 191 kts 121°
2026-04-22 05:29 25.74081 -100.03898 3560 ft 213 kts 121°
2026-04-22 05:29 25.73281 -100.02400 3934 ft 237 kts 122°
2026-04-22 05:30 25.72389 -100.00772 4549 ft 254 kts 122°
2026-04-22 05:30 25.71456 -99.99082 5461 ft 258 kts 126°
2026-04-22 05:30 25.70224 -99.97661 6429 ft 257 kts 147°
2026-04-22 05:30 25.68581 -99.96864 7189 ft 264 kts 169°
2026-04-22 05:31 25.66714 -99.96817 7878 ft 273 kts 182°
2026-04-22 05:31 25.64787 -99.96936 8605 ft 281 kts 183°
2026-04-22 05:31 25.62811 -99.97057 9338 ft 288 kts 184°
2026-04-22 05:31 25.60783 -99.97178 10050 ft 296 kts 184°
2026-04-22 05:32 25.58713 -99.97293 10776 ft 299 kts 184°
2026-04-22 05:32 25.56631 -99.97400 11541 ft 301 kts 185°
2026-04-22 05:32 25.54553 -99.97512 12284 ft 304 kts 185°
2026-04-22 05:32 25.52430 -99.97625 13042 ft 307 kts 186°
2026-04-22 05:33 25.50283 -99.97739 13803 ft 310 kts 186°
2026-04-22 05:33 25.48123 -99.97854 14495 ft 313 kts 187°
2026-04-22 05:33 25.45940 -99.97970 15179 ft 315 kts 187°
2026-04-22 05:33 25.43735 -99.98088 15869 ft 318 kts 187°
2026-04-22 05:34 25.41514 -99.98207 16556 ft 321 kts 187°
2026-04-22 05:34 25.39276 -99.98327 17245 ft 323 kts 187°
2026-04-22 05:34 25.37021 -99.98448 17923 ft 326 kts 188°
2026-04-22 05:34 25.34746 -99.98568 18564 ft 329 kts 188°
2026-04-22 05:35 25.32443 -99.98680 19107 ft 333 kts 188°
2026-04-22 05:35 25.30117 -99.98788 19655 ft 337 kts 188°
2026-04-22 05:35 25.27760 -99.98896 20209 ft 340 kts 188°
2026-04-22 05:35 25.25377 -99.99006 20750 ft 344 kts 188°
2026-04-22 05:36 25.22977 -99.99118 21288 ft 347 kts 188°
2026-04-22 05:36 25.20547 -99.99232 21824 ft 351 kts 188°
2026-04-22 05:36 25.18127 -99.99346 22359 ft 354 kts 189°
2026-04-22 05:36 25.15650 -99.99463 22868 ft 358 kts 189°
2026-04-22 05:37 25.13147 -99.99581 23375 ft 362 kts 188°
2026-04-22 05:37 25.10624 -99.99699 23920 ft 364 kts 189°
2026-04-22 05:37 25.08083 -99.99822 24360 ft 367 kts 189°
2026-04-22 05:37 25.05524 -99.99946 24819 ft 369 kts 189°
2026-04-22 05:38 25.02944 -100.00066 25259 ft 372 kts 189°
2026-04-22 05:38 25.00351 -100.00184 25601 ft 375 kts 189°
2026-04-22 05:38 24.97736 -100.00293 26067 ft 377 kts 187°
2026-04-22 05:38 24.95091 -99.99952 26515 ft 392 kts 171°
2026-04-22 05:39 24.92538 -99.98755 26853 ft 409 kts 153°
2026-04-22 05:39 24.90254 -99.96898 27222 ft 415 kts 147°
2026-04-22 05:39 24.88719 -99.95569 27541 ft 416 kts 147°
2026-04-22 05:39 24.86436 -99.93591 27965 ft 419 kts 147°
2026-04-22 05:40 24.83378 -99.90959 28493 ft 423 kts 147°
2026-04-22 05:40 24.81048 -99.88961 28856 ft 425 kts 147°
2026-04-22 05:40 24.78706 -99.86966 29073 ft 428 kts 147°
2026-04-22 05:40 24.77098 -99.85600 29110 ft 436 kts 147°
2026-04-22 05:41 24.74661 -99.83533 29105 ft 449 kts 147°
2026-04-22 05:41 24.72192 -99.81441 29108 ft 460 kts 147°
2026-04-22 05:41 24.69636 -99.79271 29105 ft 473 kts 147°
2026-04-22 05:41 24.66989 -99.77024 29096 ft 485 kts 147°
2026-04-22 05:42 24.64289 -99.74732 29101 ft 496 kts 147°
2026-04-22 05:42 24.61537 -99.72394 29105 ft 505 kts 147°
2026-04-22 05:42 24.55910 -99.67619 29095 ft 513 kts 147°
2026-04-22 05:43 24.50262 -99.62829 29092 ft 512 kts 147°
2026-04-22 05:43 24.44620 -99.58057 29095 ft 512 kts 147°
2026-04-22 05:44 24.38974 -99.53287 29099 ft 511 kts 147°
2026-04-22 05:44 24.33349 -99.48541 29087 ft 510 kts 147°
2026-04-22 05:45 24.27724 -99.43799 29078 ft 510 kts 147°
2026-04-22 05:45 24.22100 -99.39064 29072 ft 509 kts 147°
2026-04-22 05:46 24.16483 -99.34340 29075 ft 509 kts 147°
2026-04-22 05:46 24.10861 -99.29617 29073 ft 510 kts 147°
2026-04-22 05:47 24.05225 -99.24889 29070 ft 510 kts 147°
2026-04-22 05:47 23.99677 -99.20238 29071 ft 510 kts 147°
2026-04-22 05:48 23.93989 -99.15475 29066 ft 511 kts 147°
2026-04-22 05:48 23.88339 -99.10749 29074 ft 511 kts 147°
2026-04-22 05:49 23.82687 -99.06027 29073 ft 512 kts 147°
2026-04-22 05:49 23.77022 -99.01300 29075 ft 512 kts 147°
2026-04-22 05:50 23.71360 -98.96579 29078 ft 512 kts 147°
2026-04-22 05:50 23.65634 -98.91972 29081 ft 510 kts 149°
2026-04-22 05:51 23.59842 -98.87488 29075 ft 510 kts 149°
2026-04-22 05:51 23.54098 -98.83015 29077 ft 511 kts 149°
2026-04-22 05:52 23.48317 -98.78499 29084 ft 511 kts 149°
2026-04-22 05:52 23.42544 -98.73990 29045 ft 509 kts 149°
2026-04-22 05:53 23.39672 -98.71748 28677 ft 507 kts 149°
2026-04-22 05:53 23.36792 -98.69504 28164 ft 510 kts 148°
2026-04-22 05:53 23.33903 -98.67254 27659 ft 511 kts 148°
2026-04-22 05:53 23.31005 -98.64998 27159 ft 512 kts 148°
2026-04-22 05:54 23.28110 -98.62744 26674 ft 512 kts 148°
2026-04-22 05:54 23.25210 -98.60490 26194 ft 513 kts 148°
2026-04-22 05:54 23.22305 -98.58233 25634 ft 513 kts 148°
2026-04-22 05:54 23.19399 -98.55976 25055 ft 514 kts 148°
2026-04-22 05:55 23.16494 -98.53721 24491 ft 514 kts 147°
2026-04-22 05:55 23.13577 -98.51458 23937 ft 514 kts 147°
2026-04-22 05:55 23.10659 -98.49195 23334 ft 515 kts 147°
2026-04-22 05:55 23.07785 -98.46968 22810 ft 510 kts 147°
2026-04-22 05:56 23.04908 -98.44738 22192 ft 506 kts 147°
2026-04-22 05:56 23.02050 -98.42525 21710 ft 504 kts 147°
2026-04-22 05:56 22.99204 -98.40323 21317 ft 500 kts 147°
2026-04-22 05:56 22.96387 -98.38142 20917 ft 494 kts 147°
2026-04-22 05:57 22.93648 -98.36022 20449 ft 473 kts 147°
2026-04-22 05:57 22.91024 -98.33990 19975 ft 453 kts 147°
2026-04-22 05:57 22.88515 -98.32049 19507 ft 435 kts 147°
2026-04-22 05:57 22.86098 -98.30182 19052 ft 418 kts 147°
2026-04-22 05:58 22.83761 -98.28379 18573 ft 405 kts 147°
2026-04-22 05:58 22.81488 -98.26627 17894 ft 397 kts 146°
2026-04-22 05:58 22.79257 -98.24909 17185 ft 390 kts 146°
2026-04-22 05:58 22.77090 -98.23239 16497 ft 384 kts 146°
2026-04-22 05:59 22.74930 -98.21576 15820 ft 378 kts 146°
2026-04-22 05:59 22.72799 -98.19935 15158 ft 373 kts 146°
2026-04-22 05:59 22.70697 -98.18317 14513 ft 369 kts 146°
2026-04-22 05:59 22.68620 -98.16718 13866 ft 364 kts 146°
2026-04-22 06:00 22.66567 -98.15140 13165 ft 360 kts 146°
2026-04-22 06:00 22.64533 -98.13578 12471 ft 356 kts 145°
2026-04-22 06:00 22.62522 -98.12033 11810 ft 355 kts 145°
2026-04-22 06:00 22.60485 -98.10473 11090 ft 360 kts 144°
2026-04-22 06:01 22.58427 -98.08899 10390 ft 364 kts 144°
2026-04-22 06:01 22.56352 -98.07305 9674 ft 367 kts 143°
2026-04-22 06:01 22.55126 -98.06360 9231 ft 368 kts 144°
2026-04-22 06:02 22.52970 -98.04704 8472 ft 370 kts 144°
2026-04-22 06:02 22.50871 -98.03094 7758 ft 370 kts 144°
2026-04-22 06:02 22.48766 -98.01480 7044 ft 370 kts 144°
2026-04-22 06:02 22.46825 -97.99670 6331 ft 370 kts 130°
2026-04-22 06:03 22.45506 -97.97297 5595 ft 369 kts 111°
2026-04-22 06:03 22.44971 -97.94602 4881 ft 369 kts 93°
2026-04-22 06:03 22.45277 -97.91866 4142 ft 368 kts 74°
2026-04-22 06:03 22.46265 -97.89348 3626 ft 353 kts 70°
2026-04-22 06:04 22.46802 -97.86875 3377 ft 326 kts 87°
2026-04-22 06:04 22.46638 -97.84531 3155 ft 301 kts 105°
2026-04-22 06:04 22.45882 -97.82552 2978 ft 279 kts 123°
2026-04-22 06:04 22.44629 -97.81049 2676 ft 264 kts 144°
2026-04-22 06:05 22.42988 -97.80237 2218 ft 259 kts 168°
2026-04-22 06:05 22.41173 -97.80258 2048 ft 266 kts 191°
2026-04-22 06:05 22.39484 -97.81078 2012 ft 269 kts 216°
2026-04-22 06:05 22.38289 -97.82654 2006 ft 277 kts 243°
2026-04-22 06:06 22.37893 -97.84679 2010 ft 282 kts 271°
2026-04-22 06:06 22.38381 -97.86686 2009 ft 278 kts 298°
2026-04-22 06:06 22.39639 -97.88260 2005 ft 270 kts 326°
2026-04-22 06:06 22.41250 -97.88964 1998 ft 235 kts 354°
2026-04-22 06:07 22.42786 -97.89368 1990 ft 220 kts 332°
2026-04-22 06:07 22.43829 -97.90451 2003 ft 210 kts 296°
2026-04-22 06:07 22.44152 -97.91972 2003 ft 209 kts 264°
2026-04-22 06:07 22.43823 -97.93470 2014 ft 197 kts 241°
2026-04-22 06:08 22.43113 -97.94583 2010 ft 164 kts 221°
2026-04-22 06:08 22.42278 -97.95254 2003 ft 144 kts 203°
2026-04-22 06:08 22.41339 -97.95613 1987 ft 141 kts 187°
2026-04-22 06:08 22.40389 -97.95650 1824 ft 135 kts 169°
2026-04-22 06:09 22.39485 -97.95367 1808 ft 137 kts 153°
2026-04-22 06:09 22.38701 -97.94804 1806 ft 136 kts 136°
2026-04-22 06:09 22.38046 -97.94076 1801 ft 134 kts 133°
2026-04-22 06:09 22.37385 -97.93354 1804 ft 136 kts 134°
2026-04-22 06:10 22.36716 -97.92635 1802 ft 136 kts 134°
2026-04-22 06:10 22.36028 -97.91931 1751 ft 137 kts 139°
2026-04-22 06:10 22.35267 -97.91310 1522 ft 136 kts 142°
2026-04-22 06:10 22.34507 -97.90715 1286 ft 135 kts 142°
2026-04-22 06:11 22.33742 -97.90127 1115 ft 135 kts 143°
2026-04-22 06:11 22.32964 -97.89546 838 ft 135 kts 143°
2026-04-22 06:11 22.32210 -97.88957 638 ft 134 kts 142°
2026-04-22 06:11 22.31448 -97.88374 460 ft 132 kts 144°
2026-04-22 06:12 22.30697 -97.87798 262 ft 135 kts 142°
2026-04-22 06:12 22.29930 -97.87210 113 ft 131 kts 143°
2026-04-22 06:12 22.29250 -97.86693 115 ft 118 kts 142°
2026-04-22 06:12 22.28461 -97.86096 492 ft 147 kts 142°
2026-04-22 06:13 22.27649 -97.85349 1175 ft 164 kts 136°
2026-04-22 06:13 22.26782 -97.84443 1745 ft 182 kts 134°
2026-04-22 06:13 22.25856 -97.83450 2437 ft 190 kts 135°
2026-04-22 06:13 22.24892 -97.82455 2845 ft 194 kts 137°
2026-04-22 06:14 22.23778 -97.81652 2980 ft 192 kts 150°
2026-04-22 06:14 22.22597 -97.80952 3000 ft 196 kts 151°
2026-04-22 06:14 22.21415 -97.80263 2997 ft 194 kts 151°
2026-04-22 06:14 22.20229 -97.79577 2998 ft 194 kts 151°
2026-04-22 06:15 22.19037 -97.78892 2999 ft 193 kts 152°
2026-04-22 06:15 22.17735 -97.78553 2999 ft 196 kts 181°
2026-04-22 06:15 22.16449 -97.79006 2996 ft 199 kts 213°
2026-04-22 06:15 22.15587 -97.80177 3002 ft 205 kts 246°
2026-04-22 06:16 22.15472 -97.81699 2994 ft 209 kts 282°
2026-04-22 06:16 22.16201 -97.83045 3000 ft 213 kts 319°
2026-04-22 06:16 22.17517 -97.83708 2999 ft 211 kts 350°
2026-04-22 06:16 22.18963 -97.84010 2997 ft 210 kts 350°
2026-04-22 06:17 22.20403 -97.84329 2995 ft 213 kts 349°
2026-04-22 06:17 22.21837 -97.84658 2998 ft 211 kts 349°
2026-04-22 06:17 22.23259 -97.84991 3002 ft 211 kts 349°
2026-04-22 06:17 22.24692 -97.85324 3003 ft 211 kts 349°
2026-04-22 06:18 22.26129 -97.85650 3000 ft 212 kts 349°
2026-04-22 06:18 22.27569 -97.85978 2986 ft 210 kts 349°
2026-04-22 06:18 22.29000 -97.86305 2751 ft 210 kts 348°
2026-04-22 06:18 22.30422 -97.86706 2435 ft 212 kts 346°
2026-04-22 06:19 22.31842 -97.87121 2134 ft 212 kts 346°
2026-04-22 06:19 22.33250 -97.87528 1921 ft 207 kts 346°
2026-04-22 06:19 22.34622 -97.87928 1809 ft 205 kts 347°
2026-04-22 06:19 22.36007 -97.88329 1801 ft 199 kts 346°
2026-04-22 06:20 22.37301 -97.88705 1804 ft 194 kts 347°
2026-04-22 06:20 22.38621 -97.89080 1799 ft 196 kts 347°
2026-04-22 06:20 22.39944 -97.89461 1802 ft 196 kts 346°
2026-04-22 06:20 22.41256 -97.89840 1802 ft 196 kts 347°
2026-04-22 06:21 22.42559 -97.90242 1800 ft 196 kts 338°
2026-04-22 06:21 22.43578 -97.91209 1801 ft 198 kts 298°
2026-04-22 06:21 22.43839 -97.92627 1803 ft 195 kts 258°
2026-04-22 06:21 22.43267 -97.93851 1796 ft 172 kts 217°
2026-04-22 06:22 22.42307 -97.94346 1792 ft 139 kts 190°
2026-04-22 06:22 22.41389 -97.94526 1807 ft 136 kts 181°
2026-04-22 06:22 22.40464 -97.94499 1802 ft 130 kts 167°
2026-04-22 06:22 22.39593 -97.94231 1807 ft 131 kts 157°
2026-04-22 06:23 22.38772 -97.93813 1801 ft 131 kts 149°
2026-04-22 06:23 22.38009 -97.93305 1800 ft 130 kts 144°
2026-04-22 06:23 22.37259 -97.92752 1736 ft 131 kts 144°
2026-04-22 06:23 22.36519 -97.92195 1566 ft 130 kts 143°
2026-04-22 06:24 22.35033 -97.91071 1235 ft 130 kts 143°
2026-04-22 06:24 22.34293 -97.90511 1066 ft 129 kts 143°
2026-04-22 06:24 22.33560 -97.89956 901 ft 130 kts 143°
2026-04-22 06:25 22.32821 -97.89398 737 ft 129 kts 143°
2026-04-22 06:25 22.32083 -97.88849 598 ft 128 kts 144°
2026-04-22 06:25 22.31348 -97.88293 413 ft 127 kts 143°
2026-04-22 06:25 22.30629 -97.87743 222 ft 128 kts 143°
2026-04-22 06:26 22.29901 -97.87185 105 ft 125 kts 145°
2026-04-22 06:26 22.29158 -97.86632 281 ft 143 kts 144°
2026-04-22 06:26 22.28283 -97.85974 830 ft 168 kts 143°
2026-04-22 06:26 22.27270 -97.85189 1558 ft 181 kts 143°
2026-04-22 06:27 22.26240 -97.84385 2409 ft 188 kts 143°
2026-04-22 06:27 22.25125 -97.83520 2805 ft 212 kts 144°
2026-04-22 06:27 22.23903 -97.82570 2944 ft 216 kts 144°
2026-04-22 06:27 22.22672 -97.81615 2993 ft 220 kts 144°
2026-04-22 06:28 22.21428 -97.80661 2996 ft 218 kts 145°
2026-04-22 06:28 22.20190 -97.79723 2998 ft 218 kts 144°
2026-04-22 06:28 22.19351 -97.79083 2994 ft 219 kts 144°
2026-04-22 06:28 22.18269 -97.77961 3001 ft 218 kts 120°
2026-04-22 06:29 22.17906 -97.76382 3000 ft 223 kts 87°
2026-04-22 06:29 22.18405 -97.74828 2995 ft 227 kts 54°
2026-04-22 06:29 22.19642 -97.73776 2996 ft 233 kts 22°
2026-04-22 06:29 22.21250 -97.73600 2998 ft 236 kts 348°
2026-04-22 06:30 22.22718 -97.74380 3001 ft 239 kts 315°
2026-04-22 06:30 22.23668 -97.75818 2997 ft 235 kts 293°
2026-04-22 06:30 22.24318 -97.77439 2995 ft 236 kts 290°
2026-04-22 06:30 22.24980 -97.79052 2928 ft 234 kts 294°
2026-04-22 06:31 22.25719 -97.80614 2626 ft 235 kts 297°
2026-04-22 06:31 22.26535 -97.82151 2294 ft 236 kts 299°
2026-04-22 06:31 22.27385 -97.83651 2058 ft 231 kts 301°
2026-04-22 06:31 22.28249 -97.85136 2010 ft 236 kts 302°
2026-04-22 06:32 22.29403 -97.86359 2003 ft 234 kts 332°
2026-04-22 06:32 22.30942 -97.86911 2004 ft 235 kts 347°
2026-04-22 06:32 22.32526 -97.87347 1992 ft 232 kts 347°
2026-04-22 06:32 22.34088 -97.87784 2006 ft 231 kts 347°
2026-04-22 06:33 22.35646 -97.88228 1978 ft 231 kts 346°
2026-04-22 06:33 22.37187 -97.88674 1875 ft 225 kts 346°
2026-04-22 06:33 22.38625 -97.89097 1855 ft 207 kts 346°
2026-04-22 06:33 22.40009 -97.89498 1802 ft 207 kts 346°
2026-04-22 06:34 22.41397 -97.89896 1801 ft 206 kts 346°
2026-04-22 06:34 22.42767 -97.90340 1792 ft 208 kts 334°
2026-04-22 06:34 22.43796 -97.91415 1802 ft 210 kts 297°
2026-04-22 06:34 22.44047 -97.92894 1797 ft 190 kts 258°
2026-04-22 06:35 22.43480 -97.94010 1794 ft 157 kts 214°
2026-04-22 06:35 22.42564 -97.94430 1795 ft 138 kts 189°
2026-04-22 06:35 22.41628 -97.94610 1800 ft 135 kts 182°
2026-04-22 06:35 22.40697 -97.94609 1797 ft 134 kts 169°
2026-04-22 06:36 22.39812 -97.94350 1802 ft 131 kts 155°
2026-04-22 06:36 22.38986 -97.93929 1797 ft 131 kts 149°
2026-04-22 06:36 22.38201 -97.93421 1800 ft 131 kts 145°
2026-04-22 06:36 22.37442 -97.92875 1778 ft 132 kts 144°
2026-04-22 06:37 22.36682 -97.92319 1609 ft 130 kts 144°
2026-04-22 06:37 22.35946 -97.91763 1441 ft 131 kts 143°
2026-04-22 06:37 22.35194 -97.91193 1273 ft 131 kts 143°
2026-04-22 06:37 22.34448 -97.90628 1098 ft 132 kts 143°
2026-04-22 06:38 22.33702 -97.90065 919 ft 130 kts 143°
2026-04-22 06:38 22.32968 -97.89509 768 ft 131 kts 144°
2026-04-22 06:38 22.32220 -97.88944 619 ft 131 kts 143°
2026-04-22 06:38 22.31468 -97.88388 413 ft 132 kts 144°
2026-04-22 06:39 22.30711 -97.87807 236 ft 132 kts 143°
2026-04-22 06:39 22.29975 -97.87244 105 ft 125 kts 143°
2026-04-22 06:39 22.29379 -97.86789 99 ft 77 kts 145°
2026-04-22 06:39 22.29081 -97.86565 102 ft 40 kts 145°
2026-04-22 06:40 22.28861 -97.86396 101 ft 38 kts 144°
2026-04-22 06:40 22.28647 -97.86237 100 ft 37 kts 144°
2026-04-22 06:40 22.28446 -97.86079 99 ft 35 kts 150°
2026-04-22 06:40 22.28323 -97.86051 100 ft 14 kts 147°
2026-04-22 06:41 22.28345 -97.86014 100 ft 9 kts 355°
2026-04-22 06:41 22.28408 -97.86057 101 ft 13 kts 327°
2026-04-22 06:41 22.28494 -97.86120 101 ft 16 kts 325°
2026-04-22 06:41 22.28595 -97.86196 100 ft 19 kts 325°
2026-04-22 06:42 22.28713 -97.86286 99 ft 22 kts 325°
2026-04-22 06:42 22.28841 -97.86382 103 ft 23 kts 325°
2026-04-22 06:42 22.28981 -97.86483 103 ft 25 kts 328°
2026-04-22 06:42 22.29120 -97.86591 102 ft 10 kts 323°
2026-04-22 06:43 22.29137 -97.86621 99 ft 11 kts 278°
2026-04-22 06:43 22.29095 -97.86690 100 ft 14 kts 236°
2026-04-22 06:43 22.29048 -97.86766 99 ft 0 kts 235°
2026-04-22 06:43 22.29039 -97.86779 100 ft 4 kts 235°
2026-04-22 06:44 22.29016 -97.86815 99 ft 7 kts 235°
2026-04-22 06:44 22.29011 -97.86864 100 ft 5 kts 320°
2026-04-22 06:44 22.29051 -97.86888 100 ft 0 kts 321°
2026-04-22 06:44 22.29051 -97.86891 100 ft 0 kts 292°
2026-04-22 06:45 22.29045 -97.86899 101 ft 3 kts 235°
2026-04-22 06:45 22.29026 -97.86926 100 ft 5 kts 234°
2026-04-22 06:45 22.29019 -97.86937 99 ft 2 kts 234°
2026-04-22 06:45 22.29016 -97.86942 100 ft 0 kts 236°
2026-04-22 06:46 22.29043 -97.86962 99 ft 0 kts 235°